< < Back
Terminal Aerodrome Forecast


Current Version              Previous Versions:   1  2  3  4  5  6  7  8  9  

Terminal Aerodrome Forecast

261
FTUS44 KMRX 311131
TAFCHA
TAF
KCHA 311131Z 3112/0112 VRB02KT P6SM SCT250
     FM311500 01006KT P6SM SCT045 BKN200
     FM010100 VRB02KT P6SM SCT070 BKN250=



Latest METAR

422
SAUS80 KWBC 010700 RRD
MTRCHA
METAR KCHA 010653Z AUTO 00000KT 10SM CLR 22/17 A2996 RMK AO2 SLP135
T02170172


USA.gov is the U.S. government's official web portal to all federal, state and local government web resources and services.